Phuket, Thailand

1:43 PM ICT on August 29, 2016 (GMT +0700)
Phuket International

Weather History for VTSP - July, 2013

Change the Weather History Date:

Saturday, July 20, 2013

  Actual Average Record
Temperature  
Mean Temperature 84 °F -  
Max Temperature 88 °F 87 °F 96 °F (2002)
Min Temperature 80 °F 78 °F 41 °F (2007)
Cooling Degree Days 19    
Growing Degree Days 34 (Base 50)    
Moisture  
Dew Point 74 °F    
Average Humidity 70    
Maximum Humidity 79    
Minimum Humidity 62    
Precipitation  
Precipitation 0.00 in 0.36 in - ()
Sea Level Pressure  
Sea Level Pressure 29.79 in    
Wind  
Wind Speed 10 mph ()    
Max Wind Speed 15 mph    
Max Gust Speed -    
Visibility 5.2 miles    
Events      
Averages and records for this station are not official NWS values.
T = Trace of Precipitation, MM = Missing Value Source: Averaged Metar Reports

Daily Weather History Graph

Daily Weather History Graph

Search for Another Location

Airport or City:

Trip Planner

Search our weather history database for the weather conditions in past years. The results will help you decide how hot, cold, wet, or windy it might be!

Date:

Astronomy

Jul. 20, 2013 Rise Set
Actual Time 6:17 AM ICT 6:48 PM ICT
Civil Twilight 5:54 AM ICT 7:11 PM ICT
Nautical Twilight 5:28 AM ICT 7:37 PM ICT
Astronomical Twilight 5:01 AM ICT 8:04 PM ICT
Moon 4:21 PM ICT (7/20) 3:24 AM ICT (7/20)
Length of Visible Light 13h 16m
Length of Day
12h 31m
Waxing Gibbous, 90% of the Moon is Illuminated
Jul 20
Waxing Gibbous
Jul 23
Full
Jul 30
Last Quarter
Aug 7
New
Aug 14
First Quarter

Hourly Weather History & Observations

Time (ICT) Temp. Heat Index Dew Point Humidity Pressure Visibility Wind Dir Wind Speed Gust Speed Precip Events Conditions
12:00 AM 84.2 °F 89.6 °F 71.6 °F 66% 29.83 in 5.6 mi WSW 8.1 mph - N/A   Mostly Cloudy
12:30 AM 84.2 °F 90.9 °F 73.4 °F 70% 29.83 in 5.6 mi WSW 10.4 mph - N/A   Mostly Cloudy
1:00 AM 84 °F - 75 °F 68% 29.80 in 6 mi West 9.2 mph - -   Scattered Clouds
1:00 AM 82.4 °F 88.2 °F 73.4 °F 74% 29.80 in 5.6 mi West 11.5 mph - N/A   Mostly Cloudy
1:30 AM 82.4 °F 88.2 °F 73.4 °F 74% 29.80 in 5.6 mi West 11.5 mph - N/A   Mostly Cloudy
2:00 AM 82.4 °F 88.2 °F 73.4 °F 74% 29.77 in 5.6 mi West 12.7 mph - N/A   Mostly Cloudy
2:30 AM 82.4 °F 88.2 °F 73.4 °F 74% 29.77 in 5.6 mi WSW 9.2 mph - N/A   Mostly Cloudy
3:00 AM 82.4 °F 88.2 °F 73.4 °F 74% 29.77 in 5.6 mi WSW 9.2 mph - N/A   Mostly Cloudy
3:30 AM 82.4 °F 88.2 °F 73.4 °F 74% 29.77 in 5.6 mi West 10.4 mph - N/A   Mostly Cloudy
4:00 AM 82.4 °F 88.2 °F 73.4 °F 74% 29.77 in 5.6 mi West 10.4 mph - N/A   Mostly Cloudy
4:30 AM 82.4 °F 88.2 °F 73.4 °F 74% 29.77 in 5.6 mi West 11.5 mph - N/A   Mostly Cloudy
5:00 AM 82.4 °F 89.5 °F 75.2 °F 79% 29.77 in 5.6 mi West 8.1 mph - N/A   Scattered Clouds
5:30 AM 82.4 °F 88.2 °F 73.4 °F 74% 29.77 in 5.6 mi West 9.2 mph - N/A   Mostly Cloudy
6:00 AM 82.4 °F 88.2 °F 73.4 °F 74% 29.77 in 5.6 mi West 10.4 mph - N/A   Mostly Cloudy
6:30 AM 82.4 °F 88.2 °F 73.4 °F 74% 29.80 in 5.6 mi West 11.5 mph - N/A   Mostly Cloudy
7:00 AM 84 °F - 75 °F 68% 29.76 in 6 mi West 12.7 mph - -   Scattered Clouds
7:30 AM 82.4 °F 88.2 °F 73.4 °F 74% 29.80 in 5.6 mi West 11.5 mph - N/A   Mostly Cloudy
8:00 AM 84.2 °F 90.9 °F 73.4 °F 70% 29.83 in 5.6 mi West 12.7 mph - N/A   Mostly Cloudy
8:30 AM 84.2 °F 90.9 °F 73.4 °F 70% 29.83 in 5.6 mi West 15.0 mph - N/A   Mostly Cloudy
9:00 AM 84.2 °F 90.9 °F 73.4 °F 70% 29.83 in 5.0 mi West 11.5 mph - N/A   Mostly Cloudy
9:30 AM 84.2 °F 90.9 °F 73.4 °F 70% 29.83 in 5.0 mi WSW 6.9 mph - N/A   Mostly Cloudy
10:00 AM 86.0 °F 93.4 °F 73.4 °F 66% 29.83 in 5.0 mi West 10.4 mph - N/A   Mostly Cloudy
10:30 AM 86.0 °F 95.1 °F 75.2 °F 70% 29.83 in 5.0 mi West 12.7 mph - N/A   Mostly Cloudy
11:00 AM 86.0 °F 95.1 °F 75.2 °F 70% 29.80 in 5.0 mi WSW 5.8 mph - N/A   Mostly Cloudy
11:30 AM 86.0 °F 95.1 °F 75.2 °F 70% 29.80 in 5.0 mi West 12.7 mph - N/A   Mostly Cloudy
12:00 PM 86.0 °F 95.1 °F 75.2 °F 70% 29.80 in 5.0 mi West 11.5 mph - N/A   Mostly Cloudy
12:30 PM 87.8 °F 97.6 °F 75.2 °F 66% 29.80 in 5.0 mi WSW 10.4 mph - N/A   Mostly Cloudy
1:00 PM 88 °F - 78 °F 65% 29.76 in 5 mi West 6.9 mph - -   Mist
1:00 PM 87.8 °F 95.6 °F 73.4 °F 62% 29.80 in 5.0 mi West 13.8 mph - N/A   Mostly Cloudy
1:30 PM 86.0 °F 93.4 °F 73.4 °F 66% 29.77 in 5.0 mi WSW 9.2 mph - N/A   Mostly Cloudy
2:00 PM 86.0 °F 93.4 °F 73.4 °F 66% 29.77 in 5.0 mi WSW 12.7 mph - N/A   Mostly Cloudy
2:30 PM 86.0 °F 93.4 °F 73.4 °F 66% 29.77 in 5.0 mi West 12.7 mph - N/A   Mostly Cloudy
3:00 PM 87.8 °F 95.6 °F 73.4 °F 62% 29.77 in 5.0 mi West 13.8 mph - N/A   Mostly Cloudy
3:30 PM 87.8 °F 95.6 °F 73.4 °F 62% 29.74 in 5.0 mi West 12.7 mph - N/A   Mostly Cloudy
4:00 PM 86.0 °F 93.4 °F 73.4 °F 66% 29.74 in 5.0 mi West 12.7 mph - N/A   Mostly Cloudy
4:30 PM 86.0 °F 93.4 °F 73.4 °F 66% 29.74 in 5.0 mi WSW 13.8 mph - N/A   Mostly Cloudy
5:00 PM 86.0 °F 93.4 °F 73.4 °F 66% 29.74 in 5.0 mi West 12.7 mph - N/A   Mostly Cloudy
5:30 PM 84.2 °F 90.9 °F 73.4 °F 70% 29.74 in 5.0 mi West 9.2 mph - N/A   Mostly Cloudy
6:00 PM 84.2 °F 92.3 °F 75.2 °F 74% 29.77 in 5.0 mi West 6.9 mph - N/A   Mostly Cloudy
6:30 PM 84.2 °F 90.9 °F 73.4 °F 70% 29.77 in 5.0 mi West 10.4 mph - N/A   Mostly Cloudy
7:00 PM 85 °F - 76 °F 67% 29.73 in 5 mi West 9.2 mph - -   Mist
7:00 PM 84.2 °F 90.9 °F 73.4 °F 70% 29.77 in 5.0 mi West 11.5 mph - N/A   Mostly Cloudy
7:30 PM 84.2 °F 90.9 °F 73.4 °F 70% 29.77 in 5.0 mi West 11.5 mph - N/A   Mostly Cloudy
8:00 PM 84.2 °F 89.6 °F 71.6 °F 66% 29.77 in 5.0 mi WSW 11.5 mph - N/A   Mostly Cloudy
8:30 PM 84.2 °F 90.9 °F 73.4 °F 70% 29.80 in 5.0 mi WSW 9.2 mph - N/A   Mostly Cloudy
9:00 PM 84.2 °F 90.9 °F 73.4 °F 70% 29.80 in 5.0 mi West 13.8 mph - N/A   Mostly Cloudy
9:30 PM 84.2 °F 90.9 °F 73.4 °F 70% 29.80 in 5.0 mi West 12.7 mph - N/A   Mostly Cloudy
10:00 PM 82.4 °F 88.2 °F 73.4 °F 74% 29.80 in 5.0 mi West 13.8 mph - N/A   Mostly Cloudy
10:30 PM 82.4 °F 88.2 °F 73.4 °F 74% 29.80 in 5.0 mi West 11.5 mph - N/A   Mostly Cloudy
11:00 PM 82.4 °F 87.2 °F 71.6 °F 70% 29.83 in 5.0 mi WSW 8.1 mph - N/A   Mostly Cloudy
11:30 PM 82.4 °F 88.2 °F 73.4 °F 74% 29.83 in 5.0 mi WSW 6.9 mph - N/A   Mostly Cloudy